Butler, GA

4:26 AM EST on January 19, 2017 (GMT -0500)
Butler

Weather History for K6A1 - September, 2012

Change the Weather History Date:

Thursday, September 13, 2012

  Actual Average (KMCN) Record (KMCN)
Temperature  
Mean Temperature 76 °F -  
Max Temperature 86 °F 87 °F 96 °F (1991)
Min Temperature 66 °F 64 °F 50 °F (1969)
Cooling Degree Days 11    
Growing Degree Days 26 (Base 50)    
Moisture  
Dew Point 63 °F    
Average Humidity 66    
Maximum Humidity 94    
Minimum Humidity 43    
Precipitation  
Precipitation 0.00 in - - ()
Sea Level Pressure  
Sea Level Pressure 30.24 in    
Wind  
Wind Speed 4 mph ()    
Max Wind Speed 13 mph    
Max Gust Speed 18 mph    
Visibility 10.0 miles    
Events      
Averages and records for this station are not official NWS values.
T = Trace of Precipitation, MM = Missing Value Source: Averaged Metar Reports

Daily Weather History Graph

Daily Weather History Graph

Search for Another Location

Airport or City:

Trip Planner

Search our weather history database for the weather conditions in past years. The results will help you decide how hot, cold, wet, or windy it might be!

Date:

Astronomy

Sep. 13, 2012 Rise Set
Actual Time 7:19 AM EDT 7:45 PM EDT
Civil Twilight 6:55 AM EDT 8:09 PM EDT
Nautical Twilight 6:26 AM EDT 8:38 PM EDT
Astronomical Twilight 5:56 AM EDT 9:07 PM EDT
Moon 4:44 AM EDT (9/13) 6:02 PM EDT (9/13)
Length of Visible Light 13h 14m
Length of Day
12h 25m
Waning Crescent, 7% of the Moon is Illuminated
Sep 13
Waning Crescent
Sep 15
New
Sep 22
First Quarter
Sep 29
Full
Oct 8
Last Quarter

Hourly Weather History & Observations

Time (EDT) Temp. Heat Index Dew Point Humidity Pressure Visibility Wind Dir Wind Speed Gust Speed Precip Events Conditions
12:15 AM 71.6 °F - 62.6 °F 73% 30.25 in 10.0 mi East 3.5 mph - N/A   Unknown
12:35 AM 73.4 °F - 62.6 °F 69% 30.25 in 10.0 mi East 3.5 mph - N/A   Unknown
12:55 AM 73.4 °F - 62.6 °F 69% 30.25 in 10.0 mi Calm Calm - N/A   Unknown
1:15 AM 73.4 °F - 62.6 °F 69% 30.25 in 10.0 mi Calm Calm - N/A   Unknown
1:35 AM 71.6 °F - 62.6 °F 73% 30.25 in 10.0 mi East 3.5 mph - N/A   Unknown
1:55 AM 71.6 °F - 62.6 °F 73% 30.24 in 10.0 mi East 4.6 mph - N/A   Unknown
2:15 AM 71.6 °F - 62.6 °F 73% 30.25 in 10.0 mi Calm Calm - N/A   Unknown
2:35 AM 69.8 °F - 62.6 °F 78% 30.25 in 10.0 mi Calm Calm - N/A   Unknown
2:55 AM 69.8 °F - 62.6 °F 78% 30.24 in 10.0 mi Calm Calm - N/A   Unknown
3:15 AM 69.8 °F - 62.6 °F 78% 30.24 in 10.0 mi Calm Calm - N/A   Unknown
3:35 AM 71.6 °F - 62.6 °F 73% 30.24 in 10.0 mi Calm Calm - N/A   Unknown
3:55 AM 71.6 °F - 62.6 °F 73% 30.24 in 10.0 mi Calm Calm - N/A   Unknown
4:15 AM 69.8 °F - 62.6 °F 78% 30.24 in 10.0 mi Calm Calm - N/A   Unknown
4:35 AM 69.8 °F - 62.6 °F 78% 30.24 in 10.0 mi Calm Calm - N/A   Unknown
4:55 AM 69.8 °F - 62.6 °F 78% 30.24 in 10.0 mi NE 3.5 mph - N/A   Unknown
5:15 AM 69.8 °F - 62.6 °F 78% 30.24 in 10.0 mi Calm Calm - N/A   Unknown
5:35 AM 69.8 °F - 62.6 °F 78% 30.24 in 10.0 mi ENE 4.6 mph - N/A   Unknown
5:55 AM 68.0 °F - 62.6 °F 83% 30.25 in 10.0 mi NE 3.5 mph - N/A   Unknown
6:15 AM 68.0 °F - 62.6 °F 83% 30.25 in 10.0 mi ENE 3.5 mph - N/A   Unknown
6:35 AM 68.0 °F - 62.6 °F 83% 30.25 in 10.0 mi ENE 3.5 mph - N/A   Unknown
6:55 AM 66.2 °F - 64.4 °F 94% 30.26 in 10.0 mi ENE 3.5 mph - N/A   Unknown
7:15 AM 66.2 °F - 64.4 °F 94% 30.26 in 10.0 mi Calm Calm - N/A   Unknown
7:35 AM 66.2 °F - 64.4 °F 94% 30.28 in 10.0 mi Calm Calm - N/A   Unknown
7:55 AM 68.0 °F - 64.4 °F 88% 30.28 in 10.0 mi NE 3.5 mph - N/A   Unknown
8:15 AM 68.0 °F - 64.4 °F 88% 30.28 in 10.0 mi NE 3.5 mph - N/A   Unknown
8:35 AM 68.0 °F - 64.4 °F 88% 30.28 in 10.0 mi ENE 4.6 mph - N/A   Unknown
8:55 AM 68.0 °F - 64.4 °F 88% 30.29 in 10.0 mi NE 3.5 mph - N/A   Unknown
9:15 AM 69.8 °F - 64.4 °F 83% 30.29 in 10.0 mi ENE 4.6 mph - N/A   Unknown
9:35 AM 71.6 °F - 62.6 °F 73% 30.29 in 10.0 mi ENE 8.1 mph - N/A   Unknown
9:55 AM 73.4 °F - 62.6 °F 69% 30.29 in 10.0 mi ENE 6.9 mph - N/A   Unknown
10:15 AM 77.0 °F - 62.6 °F 61% 30.29 in 10.0 mi ENE 10.4 mph - N/A   Unknown
10:35 AM 77.0 °F - 60.8 °F 57% 30.30 in 10.0 mi ENE 12.7 mph - N/A   Unknown
10:55 AM 78.8 °F - 60.8 °F 54% 30.30 in 10.0 mi ENE 8.1 mph - N/A   Unknown
11:15 AM 78.8 °F - 59.0 °F 51% 30.29 in 10.0 mi NE 12.7 mph 16.1 mph N/A   Unknown
11:35 AM 80.6 °F 81.5 °F 60.8 °F 51% 30.29 in 10.0 mi ESE 9.2 mph - N/A   Unknown
11:55 AM 80.6 °F 81.5 °F 60.8 °F 51% 30.29 in 10.0 mi ENE 10.4 mph - N/A   Unknown
12:15 PM 80.6 °F 81.5 °F 60.8 °F 51% 30.28 in 10.0 mi NE 9.2 mph - N/A   Unknown
12:35 PM 80.6 °F 81.8 °F 62.6 °F 54% 30.28 in 10.0 mi NE 9.2 mph - N/A   Unknown
12:55 PM 80.6 °F 81.8 °F 62.6 °F 54% 30.28 in 10.0 mi NE 9.2 mph - N/A   Unknown
1:15 PM 82.4 °F 83.4 °F 62.6 °F 51% 30.26 in 10.0 mi NNE 6.9 mph - N/A   Unknown
1:35 PM 82.4 °F 83.4 °F 62.6 °F 51% 30.26 in 10.0 mi ENE 10.4 mph - N/A   Unknown
1:55 PM 84.2 °F 85.0 °F 62.6 °F 48% 30.25 in 10.0 mi NE 4.6 mph - N/A   Unknown
2:15 PM 82.4 °F 83.4 °F 62.6 °F 51% 30.25 in 10.0 mi East 10.4 mph 18.4 mph N/A   Unknown
2:35 PM 84.2 °F 84.4 °F 60.8 °F 45% 30.24 in 10.0 mi ENE 6.9 mph - N/A   Unknown
2:55 PM 84.2 °F 85.0 °F 62.6 °F 48% 30.23 in 10.0 mi East 9.2 mph - N/A   Unknown
3:15 PM 84.2 °F 84.4 °F 60.8 °F 45% 30.22 in 10.0 mi NNE 6.9 mph - N/A   Unknown
3:35 PM 82.4 °F 82.9 °F 60.8 °F 48% 30.20 in 10.0 mi NE 6.9 mph - N/A   Unknown
3:55 PM 86.0 °F 86.1 °F 60.8 °F 43% 30.20 in 10.0 mi NNE 6.9 mph - N/A   Unknown
4:15 PM 86.0 °F 86.1 °F 60.8 °F 43% 30.19 in 10.0 mi NE 3.5 mph - N/A   Unknown
4:35 PM 86.0 °F 86.1 °F 60.8 °F 43% 30.19 in 10.0 mi NE 8.1 mph 16.1 mph N/A   Unknown
4:55 PM 84.2 °F 84.4 °F 60.8 °F 45% 30.18 in 10.0 mi North 8.1 mph - N/A   Unknown
5:15 PM 86.0 °F 86.1 °F 60.8 °F 43% 30.18 in 10.0 mi NE 8.1 mph - N/A   Unknown
5:35 PM 86.0 °F 86.1 °F 60.8 °F 43% 30.18 in 10.0 mi NE 6.9 mph - N/A   Unknown
5:55 PM 86.0 °F 86.1 °F 60.8 °F 43% 30.18 in 10.0 mi NE 10.4 mph - N/A   Unknown
6:15 PM 84.2 °F 85.0 °F 62.6 °F 48% 30.18 in 10.0 mi NE 6.9 mph - N/A   Unknown
6:35 PM 84.2 °F 85.0 °F 62.6 °F 48% 30.18 in 10.0 mi NNE 8.1 mph - N/A   Unknown
6:55 PM 82.4 °F 83.4 °F 62.6 °F 51% 30.18 in 10.0 mi NE 6.9 mph - N/A   Unknown
7:15 PM 80.6 °F 81.8 °F 62.6 °F 54% 30.18 in 10.0 mi NNE 3.5 mph - N/A   Unknown
7:35 PM 80.6 °F 81.8 °F 62.6 °F 54% 30.18 in 10.0 mi NNE 4.6 mph - N/A   Unknown
7:55 PM 80.6 °F 82.3 °F 64.4 °F 58% 30.19 in 10.0 mi NE 3.5 mph - N/A   Unknown
8:15 PM 80.6 °F 82.3 °F 64.4 °F 58% 30.20 in 10.0 mi East 9.2 mph - N/A   Unknown
8:35 PM 78.8 °F - 68.0 °F 69% 30.20 in 10.0 mi East 8.1 mph 17.3 mph N/A   Unknown
8:55 PM 77.0 °F - 68.0 °F 74% 30.21 in 10.0 mi East 4.6 mph - N/A   Unknown
9:15 PM 77.0 °F - 68.0 °F 74% 30.21 in 10.0 mi East 4.6 mph - N/A   Unknown
9:35 PM 77.0 °F - 68.0 °F 74% 30.22 in 10.0 mi ENE 4.6 mph - N/A   Unknown
9:55 PM 75.2 °F - 68.0 °F 78% 30.22 in 10.0 mi ENE 3.5 mph - N/A   Unknown
10:15 PM 75.2 °F - 69.8 °F 83% 30.23 in 10.0 mi Calm Calm - N/A   Unknown
10:35 PM 75.2 °F - 68.0 °F 78% 30.24 in 10.0 mi ESE 6.9 mph - N/A   Unknown
10:55 PM 73.4 °F - 68.0 °F 83% 30.24 in 10.0 mi ESE 4.6 mph - N/A   Unknown
11:15 PM 73.4 °F - 68.0 °F 83% 30.24 in 10.0 mi ESE 3.5 mph - N/A   Unknown
11:35 PM 73.4 °F - 68.0 °F 83% 30.24 in 10.0 mi Calm Calm - N/A   Unknown
11:55 PM 73.4 °F - 68.0 °F 83% 30.24 in 10.0 mi Calm Calm - N/A   Unknown